Date String (YYYY-MM-DD hh:mm:ss) UTC,Instrument flags,absolute air pressure of the measurement (hPa),sample flow rate (lpm),inlet stack bypass flow (lpm),air temperature of the measurement (°C),ambient temperature measured by the external sensor (°C),aerosol sample conditioner tube jacket temperature (°C),OPC LED temperature (°C),internal box temperature (°C),relative humidity of the measurement (%),span deviation,mass concentration of particles derived from Lorenz-Mie calculation of OPC scattering (μg/m³),mass concentration of particles derived from Lorenz-Mie calculation of OPC scattering (μg/m³),mass concentration of particles derived from Lorenz-Mie calculation of OPC scattering (μg/m³)
DateTimeUTC,F1_M11,P_M11,Q1_M11,Q2_M11,T1_M11,T2_M11,T3_M11,T4_M11,T5_M11,U1_M11,ZSPAN_M11,X2_M11,X0_M11,X1_M11
2024-04-27 17:00:00,SystemResetWarning,0823.9,5.00,000.00,021.4,020.7,000.0,030.0,023.2,025.7,0000.0,0003.80,0006.80,0003.23
2024-04-27 17:01:00,SystemResetWarning,0824.0,4.99,000.00,021.4,020.7,000.0,030.0,023.2,025.7,0000.0,0003.82,0007.19,0003.24
2024-04-27 17:02:00,SystemResetWarning,0824.0,5.01,000.00,021.4,020.7,000.0,030.0,023.2,025.8,0000.0,0003.89,0007.67,0003.27
2024-04-27 17:03:00,SystemResetWarning,0824.0,5.00,000.00,021.4,020.7,000.0,030.0,023.2,026.1,0000.0,0003.91,0007.73,0003.29
2024-04-27 17:04:00,SystemResetWarning,0824.0,5.01,000.00,021.4,020.8,000.0,030.0,023.3,026.2,0000.0,0003.91,0007.77,0003.29
2024-04-27 17:05:00,SystemResetWarning,0824.0,4.99,000.00,021.4,020.8,000.0,030.0,023.3,026.3,0000.0,0003.90,0007.73,0003.28
2024-04-27 17:06:00,SystemResetWarning,0824.0,5.00,000.00,021.4,020.8,000.0,030.0,023.3,026.3,0000.0,0003.93,0007.82,0003.29
2024-04-27 17:07:00,SystemResetWarning,0824.0,5.00,000.00,021.4,020.8,000.0,030.0,023.3,026.4,0000.0,0003.92,0007.95,0003.28
2024-04-27 17:08:00,SystemResetWarning,0823.9,5.01,000.00,021.4,020.8,000.0,030.0,023.3,026.4,0000.0,0003.91,0008.15,0003.28
2024-04-27 17:09:00,SystemResetWarning,0824.0,5.00,000.00,021.5,020.8,000.0,030.0,023.3,026.4,0000.0,0003.89,0008.11,0003.28
2024-04-27 17:10:00,SystemResetWarning,0824.0,5.01,000.00,021.5,020.8,000.0,030.0,023.3,026.3,0000.0,0003.89,0008.06,0003.28
2024-04-27 17:11:00,SystemResetWarning,0824.0,4.99,000.00,021.5,020.8,000.0,030.0,023.3,026.4,0000.0,0003.89,0008.05,0003.28
2024-04-27 17:12:00,SystemResetWarning,0823.9,4.99,000.00,021.5,020.8,000.0,030.0,023.3,026.5,0000.0,0003.89,0008.34,0003.29
2024-04-27 17:13:00,SystemResetWarning,0824.0,5.00,000.00,021.5,020.8,000.0,030.0,023.3,026.7,0000.0,0003.89,0008.31,0003.30
2024-04-27 17:14:00,SystemResetWarning,0824.0,5.00,000.00,021.5,020.8,000.0,030.0,023.3,027.2,0000.0,0003.88,0008.24,0003.31
2024-04-27 17:15:00,SystemResetWarning,0824.0,5.00,000.00,021.5,020.8,000.0,030.0,023.3,026.9,0000.0,0003.91,0008.29,0003.32
2024-04-27 17:16:00,SystemResetWarning,0823.9,5.01,000.00,021.5,020.8,000.0,030.0,023.3,026.8,0000.0,0003.94,0008.35,0003.33
2024-04-27 17:17:00,SystemResetWarning,0824.0,5.00,000.00,021.5,020.8,000.0,030.0,023.3,026.6,0000.0,0003.95,0008.43,0003.34
2024-04-27 17:18:00,SystemResetWarning,0823.9,4.99,000.00,021.5,020.8,000.0,030.0,023.3,026.6,0000.0,0003.94,0008.34,0003.33
2024-04-27 17:19:00,SystemResetWarning,0824.0,5.00,000.00,021.5,020.8,000.0,030.0,023.3,026.5,0000.0,0003.98,0008.14,0003.34
2024-04-27 17:20:00,SystemResetWarning,0824.0,5.00,000.00,021.5,020.8,000.0,030.0,023.3,026.6,0000.0,0003.99,0008.18,0003.34
2024-04-27 17:21:00,SystemResetWarning,0824.0,4.99,000.00,021.5,020.8,000.0,030.0,023.3,026.7,0000.0,0004.00,0008.16,0003.34
2024-04-27 17:22:00,SystemResetWarning,0824.0,4.99,000.00,021.5,020.8,000.0,030.0,023.3,026.6,0000.0,0004.00,0008.35,0003.34
2024-04-27 17:23:00,SystemResetWarning,0824.0,4.99,000.00,021.5,020.8,000.0,030.0,023.3,026.5,0000.0,0004.01,0008.33,0003.34
2024-04-27 17:24:00,SystemResetWarning,0824.0,5.00,000.00,021.5,020.8,000.0,030.0,023.3,026.6,0000.0,0004.03,0007.86,0003.35
2024-04-27 17:25:00,SystemResetWarning,0824.1,5.00,000.00,021.5,020.8,000.0,030.0,023.3,026.8,0000.0,0004.03,0007.85,0003.34
2024-04-27 17:26:00,SystemResetWarning,0824.1,5.00,000.00,021.5,020.8,000.0,030.0,023.3,027.0,0000.0,0004.04,0007.89,0003.34
2024-04-27 17:27:00,SystemResetWarning,0824.1,5.00,000.00,021.5,020.8,000.0,030.0,023.3,026.8,0000.0,0004.00,0007.87,0003.33
2024-04-27 17:28:00,SystemResetWarning,0824.1,5.00,000.00,021.5,020.8,000.0,030.0,023.3,026.4,0000.0,0003.95,0007.68,0003.31
2024-04-27 17:29:00,SystemResetWarning,0824.2,5.00,000.00,021.5,020.8,000.0,030.0,023.3,026.4,0000.0,0003.94,0007.66,0003.30
2024-04-27 17:30:00,SystemResetWarning,0824.1,5.01,000.00,021.5,020.8,000.0,030.0,023.3,026.5,0000.0,0003.87,0007.47,0003.28
2024-04-27 17:31:00,SystemResetWarning,0824.1,4.99,000.00,021.5,020.8,000.0,030.0,023.3,026.2,0000.0,0003.86,0007.45,0003.27
2024-04-27 17:32:00,SystemResetWarning,0824.1,5.00,000.00,021.5,020.8,000.0,030.0,023.3,026.1,0000.0,0003.83,0008.07,0003.25
2024-04-27 17:33:00,SystemResetWarning,0824.2,5.01,000.00,021.5,020.8,000.0,030.0,023.3,026.2,0000.0,0003.81,0007.85,0003.23
2024-04-27 17:34:00,SystemResetWarning,0824.2,5.00,000.00,021.5,020.8,000.0,030.0,023.3,026.2,0000.0,0003.81,0007.73,0003.21
2024-04-27 17:35:00,SystemResetWarning,0824.2,5.01,000.00,021.5,020.8,000.0,030.0,023.3,026.1,0000.0,0003.76,0007.58,0003.19
2024-04-27 17:36:00,SystemResetWarning,0824.1,5.00,000.00,021.4,020.8,000.0,030.0,023.3,026.2,0000.0,0003.73,0007.55,0003.17
2024-04-27 17:37:00,SystemResetWarning,0824.1,4.99,000.00,021.5,020.8,000.0,030.0,023.3,026.1,0000.0,0003.69,0007.47,0003.15
2024-04-27 17:38:00,SystemResetWarning,0824.2,4.99,000.00,021.5,020.8,000.0,030.0,023.3,026.2,0000.0,0003.67,0007.38,0003.15
2024-04-27 17:39:00,SystemResetWarning,0824.2,5.00,000.00,021.5,020.8,000.0,030.0,023.3,026.2,0000.0,0003.69,0007.44,0003.16
2024-04-27 17:40:00,SystemResetWarning,0824.2,5.01,000.00,021.4,020.8,000.0,030.0,023.3,026.2,0000.0,0003.66,0007.35,0003.16
2024-04-27 17:41:00,SystemResetWarning,0824.1,5.01,000.00,021.4,020.8,000.0,030.0,023.3,026.3,0000.0,0003.68,0007.42,0003.16
2024-04-27 17:42:00,SystemResetWarning,0824.2,5.00,000.00,021.5,020.8,000.0,030.0,023.3,026.6,0000.0,0003.66,0007.34,0003.16
2024-04-27 17:43:00,SystemResetWarning,0824.1,5.00,000.00,021.5,020.8,000.0,030.0,023.3,026.8,0000.0,0003.65,0006.36,0003.16
2024-04-27 17:44:00,SystemResetWarning,0824.2,4.99,000.00,021.5,020.8,000.0,030.0,023.3,026.7,0000.0,0003.65,0006.53,0003.16
2024-04-27 17:45:00,SystemResetWarning,0824.2,5.00,000.00,021.5,020.8,000.0,030.0,023.3,026.7,0000.0,0003.62,0006.43,0003.16
2024-04-27 17:46:00,SystemResetWarning,0824.1,5.01,000.00,021.5,020.8,000.0,030.0,023.3,026.8,0000.0,0003.60,0006.37,0003.15
2024-04-27 17:47:00,SystemResetWarning,0824.2,5.00,000.00,021.5,020.8,000.0,030.0,023.3,026.8,0000.0,0003.55,0006.12,0003.13
2024-04-27 17:48:00,SystemResetWarning,0824.2,5.00,000.00,021.4,020.7,000.0,030.0,023.3,026.6,0000.0,0003.52,0006.00,0003.12
2024-04-27 17:49:00,SystemResetWarning,0824.2,5.00,000.00,021.4,020.8,000.0,030.0,023.2,026.4,0000.0,0003.50,0005.90,0003.10
2024-04-27 17:50:00,SystemResetWarning,0824.1,5.01,000.00,021.4,020.8,000.0,030.0,023.2,026.2,0000.0,0003.47,0005.76,0003.09
2024-04-27 17:51:00,SystemResetWarning,0824.2,5.00,000.00,021.4,020.8,000.0,030.0,023.2,026.1,0000.0,0003.47,0005.75,0003.09
2024-04-27 17:52:00,SystemResetWarning,0824.2,4.98,000.00,021.4,020.8,000.0,030.0,023.2,026.2,0000.0,0003.45,0005.64,0003.08
2024-04-27 17:53:00,SystemResetWarning,0824.2,5.00,000.00,021.4,020.8,000.0,030.0,023.2,026.2,0000.0,0003.48,0005.68,0003.10
2024-04-27 17:54:00,SystemResetWarning,0824.1,5.02,000.00,021.4,020.7,000.0,030.0,023.2,026.2,0000.0,0003.51,0005.75,0003.11
2024-04-27 17:55:00,SystemResetWarning,0824.1,5.00,000.00,021.4,020.7,000.0,030.0,023.2,026.2,0000.0,0003.50,0005.42,0003.12
2024-04-27 17:56:00,SystemResetWarning,0824.1,4.99,000.00,021.4,020.7,000.0,030.0,023.2,026.1,0000.0,0003.52,0005.58,0003.12
2024-04-27 17:57:00,SystemResetWarning,0824.3,4.99,000.00,021.4,020.7,000.0,030.0,023.2,026.2,0000.0,0003.54,0005.59,0003.13
2024-04-27 17:58:00,SystemResetWarning,0824.2,5.01,000.00,021.4,020.7,000.0,030.0,023.2,026.9,0000.0,0003.58,0005.74,0003.15
2024-04-27 17:59:00,SystemResetWarning,0824.3,5.01,000.00,021.4,020.7,000.0,029.9,023.2,026.6,0000.0,0003.63,0006.48,0003.18
